Theta_e
336 336 336 336 337 337 335 335 335 334 334 335 335 335 334 335 333 332 331 331 331 331 330 329 330 329 330 329 327 328 329 330 332 335 335 335 334 331 329 328 328 330 332 333 332 331 330 329 328 328 327 323 323 325 325 325 323 324 326 326 328 329 328 326 323 319 315 311 306 302 301 300 299 299 300 300 302 305 308 310 313 315 317 318 318
336 336 337 337 336 335 334 335 334 333 334 334 335 335 336 335 333 331 331 332 332 331 330 329 329 328 329 329 327 327 327 328 331 334 335 336 335 333 330 328 327 329 332 333 332 332 330 330 330 329 328 325 323 324 326 324 321 322 326 325 327 329 329 327 325 322 318 315 310 305 301 300 299 299 300 299 300 302 304 305 308 310 313 315 317
336 336 336 336 334 333 333 334 333 332 333 334 333 335 336 334 332 331 332 333 331 331 330 328 329 328 327 327 328 327 326 326 329 332 334 335 335 334 331 328 327 328 330 331 332 332 331 330 330 329 329 327 326 324 325 324 320 320 325 324 325 328 328 328 327 324 322 318 314 309 304 302 300 299 299 299 300 301 302 303 304 307 311 314 315
335 336 336 335 334 333 333 333 333 332 333 334 334 334 335 334 333 332 333 333 332 331 330 329 328 327 327 326 326 328 326 326 328 330 332 334 335 335 333 330 328 328 329 329 331 332 331 331 330 330 330 328 328 327 325 325 321 319 324 325 324 326 327 327 327 326 325 322 318 314 309 305 302 300 299 299 299 300 301 301 302 304 308 312 314
334 335 335 335 334 334 334 334 333 332 333 334 335 334 333 333 333 333 333 333 332 331 329 329 327 326 327 326 326 327 326 326 327 328 330 333 334 335 334 331 329 328 327 328 329 330 331 331 330 329 330 329 329 328 327 327 323 318 321 325 324 324 326 327 326 326 326 324 320 317 314 309 304 302 300 299 298 299 300 300 301 303 305 308 312
335 334 335 335 334 334 334 334 333 333 334 333 333 334 334 333 333 333 333 332 332 331 330 329 328 326 326 326 326 326 326 326 327 327 327 330 333 334 333 332 330 329 327 327 328 329 330 331 330 329 330 330 329 328 328 327 326 321 317 323 325 323 324 327 327 327 326 326 323 319 316 313 309 304 301 300 299 298 298 299 300 301 302 304 307
335 334 335 335 334 333 333 333 332 333 334 332 332 334 334 333 334 334 333 332 331 330 329 329 329 328 328 328 328 327 327 326 327 326 327 328 330 332 333 332 331 329 328 328 328 328 328 329 329 328 329 330 328 328 329 328 327 324 319 320 324 324 323 325 327 327 327 326 325 322 318 316 313 308 304 301 300 298 298 298 298 299 300 301 303
335 335 335 335 334 333 333 332 332 333 334 333 333 333 334 333 334 335 333 331 331 330 329 328 329 329 329 329 331 331 330 330 329 327 327 327 328 330 331 333 333 332 330 329 329 328 328 328 328 327 327 328 327 328 329 329 328 327 325 320 321 324 324 324 326 327 327 327 326 324 321 318 315 312 307 303 301 299 298 297 297 298 298 299 301
334 334 334 334 333 333 332 332 332 334 334 333 333 333 334 333 334 334 333 332 331 331 330 329 330 330 330 330 331 330 329 330 330 329 328 328 328 328 329 330 333 333 332 331 330 329 328 328 328 327 326 326 326 327 328 329 329 328 328 323 320 322 322 323 325 326 327 327 327 325 323 321 317 313 310 306 302 299 298 297 297 297 298 298 299
332 332 333 332 332 332 331 331 333 334 333 333 334 333 334 333 333 334 333 332 331 331 330 329 330 330 331 331 331 330 329 330 330 330 329 328 328 329 328 328 330 333 333 333 332 331 330 329 328 327 326 326 326 326 327 329 330 328 328 325 321 319 319 319 320 324 327 327 327 326 325 324 319 316 313 309 305 301 299 298 297 297 297 297 298
330 330 330 330 330 330 331 331 332 333 332 332 333 333 333 332 332 333 333 332 332 331 331 330 330 330 330 331 331 330 330 330 329 329 329 329 329 328 329 328 327 329 331 332 333 333 332 330 330 328 327 327 326 326 326 327 329 328 329 327 324 323 322 320 319 319 322 325 327 327 326 325 323 320 317 313 309 305 301 298 297 297 297 297 298
327 328 328 327 328 329 329 329 330 331 331 331 332 332 333 332 332 333 332 333 332 332 332 332 331 330 331 330 331 331 331 330 328 325 326 328 329 328 329 329 328 328 328 329 331 333 334 333 331 330 329 329 328 327 326 326 327 327 329 329 327 327 327 327 325 323 320 320 325 328 326 325 324 324 323 319 315 309 303 300 298 297 297 297 297
325 326 325 325 324 326 327 328 328 329 330 331 331 331 331 331 331 332 332 332 332 332 332 331 331 330 330 330 330 331 330 330 328 324 323 326 327 327 328 328 328 328 327 327 329 330 333 333 333 332 331 331 329 329 327 327 327 325 327 329 330 330 329 328 328 328 325 318 319 325 327 326 326 325 325 324 321 315 308 303 299 297 297 296 297
324 325 324 324 324 324 325 326 328 328 329 330 331 331 331 331 331 332 332 331 331 331 331 331 330 330 330 330 331 332 331 329 328 326 324 323 324 325 325 326 328 328 327 327 328 328 330 332 333 333 333 333 332 331 329 329 328 327 326 327 328 330 331 330 329 329 329 323 318 320 323 325 326 326 326 326 325 321 316 310 303 299 297 297 297
323 323 324 323 323 323 324 325 326 327 328 329 329 330 330 330 330 330 330 330 330 330 330 331 330 329 330 331 333 335 333 331 329 328 327 326 325 325 325 325 326 327 326 327 327 328 329 330 331 333 333 334 334 333 332 331 330 329 328 327 327 327 329 331 331 330 329 328 325 323 322 322 323 324 325 326 326 325 321 317 311 304 300 297 296
323 323 322 322 321 322 322 322 323 324 325 325 326 328 328 329 329 329 329 329 329 330 331 331 330 330 331 332 333 334 335 335 332 330 330 329 329 329 327 325 325 326 326 327 328 328 328 328 329 330 331 332 333 333 333 333 331 331 330 329 328 327 327 329 331 333 331 329 328 328 326 324 323 322 323 324 326 326 325 322 318 313 306 300 297
323 322 322 321 321 321 320 321 321 321 322 322 323 324 325 326 327 329 329 329 329 330 330 330 330 330 330 331 332 333 335 333 333 333 330 326 327 329 329 327 327 328 328 327 328 329 329 329 328 327 328 330 331 332 333 333 333 332 331 331 330 329 327 327 328 332 333 331 329 329 329 328 327 326 324 323 323 325 326 325 323 320 314 306 299
322 322 322 322 321 321 319 318 319 319 319 319 320 319 320 321 323 325 327 328 328 328 328 328 328 328 329 330 330 331 332 331 333 334 332 328 326 328 329 329 328 330 331 329 328 328 328 329 330 328 328 329 330 331 333 333 333 333 333 332 331 331 330 328 326 327 330 331 332 332 330 330 329 328 327 325 323 323 324 325 324 322 320 313 305
321 321 322 321 320 319 317 316 315 315 315 316 317 317 317 318 319 320 322 324 326 327 328 328 328 328 328 328 327 327 328 329 331 332 333 332 329 327 329 329 329 331 331 330 328 328 328 328 331 331 330 329 330 331 332 332 332 332 333 333 332 332 331 330 329 328 327 328 331 333 332 331 330 329 328 328 325 323 323 324 323 323 322 319 313
320 320 319 318 317 316 316 316 315 314 314 315 316 318 319 318 319 318 318 320 321 323 325 325 326 327 327 327 326 325 325 325 326 328 331 334 332 330 329 327 327 328 329 329 329 329 328 327 328 330 330 330 331 331 332 332 331 331 331 331 332 332 331 330 330 330 329 328 328 330 332 332 331 330 330 329 328 326 325 323 322 322 322 321 319
317 317 316 316 316 315 315 315 315 315 315 316 317 318 319 319 319 319 318 318 318 318 320 319 319 322 323 324 326 326 325 325 325 325 328 332 333 333 330 327 326 326 326 326 327 327 327 326 328 330 330 329 330 331 331 331 331 331 331 330 331 331 331 330 330 330 330 330 329 328 330 332 332 332 331 330 330 328 327 325 323 322 322 322 321
316 317 316 316 316 316 315 315 316 317 317 317 317 318 320 319 319 319 319 319 318 317 318 318 315 317 319 319 321 323 325 326 326 325 325 328 330 331 328 328 329 327 324 322 322 322 322 322 325 327 328 328 327 328 329 330 330 330 331 331 331 331 332 332 331 331 330 330 330 329 328 330 332 333 332 331 331 330 329 328 326 324 323 322 321
317 317 317 318 317 316 316 316 317 317 317 318 318 319 319 319 319 319 319 320 319 318 320 320 316 315 316 317 317 319 319 321 322 321 321 323 324 324 321 322 324 324 323 322 319 319 318 317 319 321 324 326 326 326 326 326 327 328 330 330 331 331 332 332 332 331 330 329 328 329 328 328 330 331 332 332 331 331 330 329 327 326 325 323 323
318 318 318 318 317 316 316 317 316 316 316 317 317 317 317 318 318 318 318 318 317 317 318 319 319 317 316 316 317 317 316 316 317 317 318 318 319 321 319 318 319 319 319 320 319 318 318 317 318 321 323 325 327 326 323 323 325 326 328 329 329 329 330 330 329 328 328 326 326 326 327 328 328 328 330 331 331 331 330 330 329 327 326 324 324
318 319 319 318 317 317 317 316 316 316 315 315 316 316 316 317 317 318 317 316 317 317 316 315 317 318 317 316 316 316 316 316 316 317 317 317 317 319 318 318 319 318 318 318 318 318 318 318 318 319 320 320 323 324 323 325 327 328 328 327 327 328 327 327 327 326 325 324 324 325 325 327 327 327 328 330 331 331 331 331 330 329 327 325 324
319 320 318 319 318 318 317 317 316 315 315 315 315 316 316 316 316 317 317 317 316 315 315 314 314 315 317 316 315 315 315 315 315 316 317 317 316 316 317 317 317 317 317 317 317 318 318 318 318 318 318 317 317 318 321 324 327 328 329 329 328 328 327 327 326 325 325 325 324 324 325 326 326 327 326 328 330 331 331 331 331 330 329 327 325
320 320 318 318 319 318 317 316 315 316 316 315 314 314 315 316 315 316 316 315 315 314 314 313 313 313 315 316 315 313 313 314 314 314 315 315 315 315 316 317 318 318 317 316 317 318 318 318 318 319 319 318 317 316 318 320 321 323 325 326 326 325 325 325 324 324 325 326 326 326 326 326 326 327 326 326 327 329 330 330 330 330 330 329 328
319 320 319 319 320 319 318 317 316 316 316 315 315 314 314 316 315 315 316 316 317 317 315 314 313 312 313 315 314 311 312 314 312 313 314 314 314 315 314 315 317 317 317 317 317 317 316 316 317 318 318 318 318 317 319 321 321 321 322 322 323 322 322 322 323 324 324 325 326 327 327 327 326 326 326 326 326 327 328 330 330 330 330 330 330
319 319 320 319 320 320 319 318 316 316 316 315 316 315 313 315 316 315 316 317 316 316 315 315 315 313 312 313 313 310 310 312 311 311 312 311 312 313 313 314 314 316 317 317 317 316 314 313 314 316 316 316 317 318 319 321 321 321 320 320 320 319 319 320 321 323 324 324 326 327 326 326 327 327 326 326 326 326 326 327 328 330 330 330 330
318 319 320 319 320 320 320 319 317 317 316 315 316 315 313 315 315 314 316 316 315 315 315 315 314 314 312 312 313 310 308 310 311 310 309 309 310 310 310 311 312 314 315 316 317 315 313 313 312 313 314 313 314 315 316 317 317 318 318 317 316 316 316 317 318 320 320 322 323 324 323 324 324 325 326 326 326 326 326 326 326 327 329 329 329
319 320 320 319 320 321 320 320 319 317 316 316 316 315 314 315 315 315 315 314 315 316 315 314 314 314 313 311 312 311 308 309 310 309 308 308 309 308 308 309 310 311 312 314 317 316 313 314 313 312 313 312 313 313 314 315 315 316 316 315 315 315 315 316 316 318 319 319 320 320 320 320 321 322 324 325 325 326 326 326 326 326 326 327 328
319 320 320 320 320 320 320 320 319 319 317 316 316 315 315 316 315 315 315 313 315 316 314 313 313 313 313 311 311 310 308 308 309 308 308 309 308 307 307 307 308 310 310 312 315 315 313 313 313 313 313 312 312 311 312 313 314 314 315 315 315 315 316 317 317 318 318 318 319 318 318 318 319 320 320 321 323 324 325 326 326 326 325 326 326
319 319 321 321 321 320 320 320 320 320 318 317 317 316 315 316 315 315 314 313 315 316 314 314 313 313 313 311 311 310 309 309 309 308 309 309 308 308 307 307 307 308 308 309 311 312 311 311 311 311 311 311 311 311 312 312 312 313 313 313 314 314 315 315 316 316 315 316 316 316 316 317 319 320 321 321 321 322 324 325 326 326 325 325 325
320 319 320 322 321 320 321 321 320 320 319 318 317 316 316 316 316 315 315 315 314 314 315 314 313 313 312 310 311 311 310 309 308 308 309 308 308 308 308 307 307 306 306 307 308 309 309 309 309 309 310 310 311 311 311 312 312 312 312 313 313 313 313 313 313 313 313 313 314 313 314 315 317 320 322 323 322 322 323 324 325 326 326 325 325
319 319 320 321 321 320 320 320 321 320 320 319 318 317 316 316 316 315 315 315 314 313 315 315 313 313 311 309 310 311 310 310 310 310 309 308 308 308 307 306 306 306 306 306 306 307 308 308 309 309 310 310 311 311 311 311 311 311 311 312 312 312 312 312 312 312 312 313 314 314 314 316 317 320 322 323 322 321 321 322 323 324 325 325 325
320 319 319 320 320 320 320 320 321 320 320 320 318 318 317 316 316 316 316 315 314 313 314 314 313 313 312 311 311 311 311 310 310 310 310 309 308 306 306 305 305 305 306 306 307 307 308 308 309 308 308 308 308 309 309 310 310 310 310 310 311 311 311 311 311 312 312 313 313 313 313 315 317 321 323 324 323 322 322 322 322 322 323 324 324
320 319 319 319 320 320 320 320 320 320 320 320 319 318 318 318 317 316 316 315 314 313 314 314 313 312 312 311 311 311 311 310 310 310 309 308 307 306 306 305 305 306 305 305 305 305 306 307 307 307 307 307 307 308 309 310 310 310 310 310 310 310 310 310 311 311 311 311 311 311 312 313 314 317 320 321 321 321 321 320 319 319 319 320 322
320 320 319 319 319 321 321 320 320 320 320 320 320 319 318 318 317 317 316 316 315 314 313 313 313 312 311 311 311 310 310 310 309 309 308 307 306 306 306 305 306 306 306 305 305 306 306 307 307 307 307 308 308 308 308 309 309 309 310 310 310 310 310 310 310 310 310 310 311 312 312 312 312 314 315 316 317 317 318 318 317 317 317 317 318
321 321 320 320 321 322 322 320 319 320 321 320 320 319 319 318 318 317 317 316 315 314 314 313 312 311 310 310 310 310 310 309 308 308 307 306 304 303 303 304 304 304 304 304 305 305 306 306 307 308 308 308 308 308 308 308 308 308 309 309 310 310 310 310 311 311 311 311 312 312 313 313 314 314 314 314 315 316 317 318 318 317 316 315 316
323 322 322 322 323 322 321 321 320 320 321 321 320 320 319 318 318 318 317 316 315 314 313 313 312 311 310 310 310 309 309 308 308 307 306 304 302 300 298 298 299 301 301 302 302 303 304 305 306 306 307 307 307 308 308 308 309 309 309 309 310 310 311 311 311 312 312 311 311 311 311 311 312 313 315 315 315 315 316 318 319 318 317 316 315
324 324 323 323 323 321 321 321 321 320 321 321 320 320 319 319 319 318 317 316 315 314 313 312 311 310 310 309 309 308 308 307 307 306 305 303 301 299 297 296 297 299 300 301 302 303 303 304 304 305 305 306 307 307 307 308 308 308 308 308 309 309 309 310 310 310 309 310 310 310 310 310 310 311 312 314 315 315 316 318 319 319 319 318 317
325 325 324 323 322 322 322 322 321 321 321 320 320 320 320 319 319 318 317 316 315 314 313 312 311 310 309 309 308 308 307 306 305 304 303 302 301 300 299 298 297 298 298 299 300 300 301 302 303 303 303 304 304 305 305 306 306 306 307 307 308 308 308 309 309 309 309 310 310 311 311 311 311 312 312 313 314 315 316 318 319 319 319 318 318
324 324 324 324 323 322 322 321 320 320 320 320 320 320 320 319 318 318 317 315 314 313 313 312 311 310 309 308 307 306 306 305 304 303 303 302 301 300 300 300 299 299 299 298 299 299 299 300 301 301 301 302 303 303 303 304 304 305 306 306 307 308 309 309 309 309 310 310 309 309 309 309 309 311 312 313 314 314 316 318 318 319 319 318 318
322 323 324 324 324 323 323 322 321 320 320 319 320 320 320 319 317 317 316 315 314 313 312 310 309 308 307 306 306 305 305 304 303 303 302 302 301 301 302 302 301 301 300 300 300 299 299 299 299 299 300 301 301 301 301 302 303 303 303 303 304 306 307 307 307 308 308 308 307 307 308 308 309 309 310 311 312 314 315 316 317 318 319 320 319
319 321 322 323 324 323 322 322 321 320 320 320 319 319 319 318 316 316 315 313 312 311 310 308 307 306 306 305 304 304 303 302 302 302 302 302 302 303 303 303 302 302 302 301 301 300 300 299 299 299 300 300 300 300 300 301 301 301 301 302 303 303 303 303 304 304 305 306 305 306 307 307 308 309 310 310 311 312 312 314 315 316 317 319 320
316 318 320 321 321 321 321 321 321 321 320 319 317 317 316 316 315 314 312 311 310 308 307 306 305 305 304 303 303 302 302 302 302 302 302 302 303 303 302 302 301 301 301 301 301 301 300 300 299 299 300 300 300 300 300 300 300 300 300 300 300 300 300 300 300 301 302 303 303 303 304 305 305 306 306 306 307 308 309 310 311 313 314 316 318
315 316 318 319 319 319 319 320 319 319 316 314 312 313 313 313 312 311 309 307 307 305 304 304 304 303 303 302 302 302 302 302 302 302 302 302 302 301 301 300 299 299 299 299 300 300 300 300 300 300 300 300 300 300 300 300 300 299 298 297 297 297 297 298 299 299 300 301 301 302 303 303 304 304 305 304 305 306 307 308 310 311 312 313 315
315 315 316 317 318 318 318 318 318 315 311 308 308 309 310 310 309 308 306 305 304 304 303 302 302 302 302 302 302 302 302 302 302 302 301 301 300 299 299 298 298 298 298 298 298 298 298 299 299 299 299 299 299 299 299 298 298 297 297 296 296 296 296 297 298 298 299 299 300 301 302 303 303 304 305 305 305 306 306 307 307 308 309 311 313
315 315 315 316 317 317 317 316 314 311 306 305 306 307 307 307 306 305 304 303 303 302 301 301 301 301 302 302 302 302 302 302 301 301 300 299 299 298 298 297 297 297 297 297 297 297 297 297 297 297 297 297 297 297 296 296 296 296 296 295 295 296 296 297 297 298 298 299 299 300 301 302 303 304 305 305 306 306 306 306 306 307 307 310 315
314 315 315 315 314 314 313 312 310 307 304 302 303 304 304 304 304 302 301 301 300 300 300 300 300 301 301 301 301 301 301 301 300 299 298 298 297 296 296 296 296 296 296 296 296 296 296 296 296 295 295 296 295 296 296 296 296 296 296 295 295 295 296 296 297 297 298 298 298 299 300 300 301 302 303 304 305 306 307 307 308 308 308 311 316
314 313 313 312 310 308 308 308 307 306 302 300 300 301 301 301 301 300 300 299 298 298 298 299 299 300 300 300 299 299 299 299 298 298 297 296 295 294 294 294 294 295 295 295 295 294 294 294 294 294 293 294 294 294 294 294 295 296 296 296 296 296 295 296 296 296 296 297 297 298 299 300 300 301 302 302 303 305 307 308 309 310 312 315 317
Wind_Speed
7 8 8 9 10 10 10 11 12 13 11 10 10 10 10 11 12 11 10 11 10 9 8 8 10 11 11 10 10 9 8 9 9 10 10 8 7 7 5 4 8 12 14 13 10 10 9 7 8 7 5 6 8 8 6 6 6 6 6 5 5 5 2 1 1 3 4 5 6 7 8 8 8 8 8 8 8 8 9 9 10 12 12 13 13
8 8 8 9 10 10 11 10 10 9 8 9 9 8 9 10 12 11 10 10 11 10 9 9 10 10 10 11 11 11 9 9 9 9 10 10 9 8 7 5 7 10 12 13 11 10 8 8 9 8 6 5 6 7 7 7 6 7 7 5 6 6 4 2 1 1 3 4 5 6 7 7 7 7 7 7 7 7 7 8 9 10 11 12 13
9 7 7 8 9 9 8 8 7 6 6 8 8 8 9 9 10 11 9 10 11 10 8 9 10 10 11 12 12 13 11 10 10 10 11 11 10 9 9 7 6 9 11 11 12 11 9 9 10 8 6 6 6 6 7 7 6 8 8 7 7 7 5 4 2 1 2 3 4 4 5 6 6 6 6 6 7 6 6 7 8 9 10 11 12
10 7 5 6 7 5 5 8 7 6 7 6 6 8 8 8 9 9 9 10 11 8 6 7 10 12 9 10 13 14 13 11 10 10 12 14 13 11 11 9 7 8 9 10 11 11 10 10 10 9 7 7 7 6 6 6 6 8 9 8 8 8 7 5 5 2 1 2 2 3 4 5 5 5 5 5 6 6 6 6 6 8 8 10 10
10 8 6 5 5 5 5 9 8 6 6 6 7 10 11 10 10 8 9 10 10 7 7 7 7 10 12 10 11 12 12 12 11 10 11 14 14 11 11 11 9 9 9 9 10 11 11 10 10 11 10 8 8 7 7 7 6 6 9 9 7 8 8 6 6 4 1 1 1 2 2 3 4 4 4 5 5 5 5 5 5 6 7 8 9
9 8 8 7 6 6 6 7 7 5 4 6 7 9 11 10 8 10 11 10 9 7 7 9 7 8 11 13 12 11 9 8 10 11 10 11 13 11 11 11 11 11 10 10 10 10 11 10 10 10 11 10 9 9 8 8 6 4 7 10 8 7 9 8 6 6 3 1 1 1 1 2 3 4 4 3 4 4 4 4 5 5 5 6 7
9 8 8 8 8 8 7 6 7 6 5 8 9 7 7 9 10 13 13 9 8 8 8 9 8 9 12 14 12 7 7 6 8 11 11 11 11 11 12 13 13 12 11 11 11 10 10 10 10 10 12 11 10 10 9 9 8 5 4 8 9 8 9 9 7 7 5 2 2 2 2 2 2 3 3 3 3 3 3 3 4 4 4 5 6
8 9 7 7 8 9 8 7 7 7 7 9 9 8 9 11 13 13 13 10 8 8 9 9 7 7 11 13 11 7 6 7 7 7 8 12 14 13 13 14 13 12 12 11 12 12 10 10 10 10 11 11 10 10 10 10 9 7 6 6 8 8 9 10 9 8 7 5 4 3 4 3 2 2 2 2 2 2 2 2 3 3 4 4 5
6 7 5 5 7 7 7 7 7 7 9 10 9 10 11 12 13 13 13 12 9 7 8 7 6 5 7 10 10 9 8 8 9 9 9 7 9 12 14 15 13 13 13 11 11 12 12 11 11 11 11 10 10 9 10 10 10 9 8 5 6 8 9 11 11 9 8 8 6 4 4 4 4 3 2 2 2 2 2 2 2 3 3 3 4
3 2 2 3 3 2 3 6 7 6 7 9 8 9 10 10 11 13 13 12 11 9 8 6 6 3 4 6 6 6 7 8 9 9 10 10 8 6 7 10 13 14 14 11 10 11 13 13 12 12 11 11 10 9 9 10 11 10 9 7 5 5 6 9 12 11 9 9 8 6 5 5 5 4 3 2 2 2 2 2 3 3 3 3 3
1 1 1 2 1 1 1 1 4 4 5 7 7 7 8 9 9 10 12 12 12 9 7 6 3 1 4 4 5 6 6 6 7 8 8 10 11 11 10 8 10 13 12 11 10 11 12 14 14 14 13 12 11 11 10 11 12 10 10 9 6 5 4 4 8 10 10 10 9 9 8 6 5 3 3 3 3 3 3 3 3 4 4 4 4
2 2 2 2 2 3 3 3 3 2 3 5 7 8 8 8 8 8 8 9 11 9 6 6 4 2 2 4 5 6 7 5 5 7 7 9 10 11 12 12 10 9 11 13 12 12 13 14 15 15 14 13 13 13 12 11 12 11 11 11 9 7 6 5 5 7 9 11 11 11 10 9 7 4 4 4 4 4 4 4 4 5 5 5 4
3 3 3 2 3 4 4 3 4 1 1 1 3 6 6 5 6 6 5 6 7 7 7 7 4 2 1 2 3 5 6 5 6 9 10 9 9 11 13 13 12 10 10 13 14 13 13 14 14 15 16 15 14 14 14 13 13 12 11 12 12 11 11 9 8 7 7 10 12 12 12 11 9 7 6 6 5 5 5 5 5 6 6 6 6
5 4 4 5 4 4 4 4 4 4 3 3 2 1 3 4 4 4 3 4 4 3 5 6 4 1 1 2 2 4 5 6 6 8 11 12 11 11 14 14 13 12 11 10 13 14 13 13 13 14 15 15 15 15 15 16 15 14 13 13 13 14 14 13 12 10 8 8 9 11 12 13 12 10 9 8 7 6 6 7 7 7 7 7 7
5 5 7 8 6 5 7 7 7 5 5 6 6 4 2 1 1 2 1 2 2 0 2 4 4 3 2 1 1 1 2 3 3 4 8 10 9 10 13 15 14 13 13 10 7 9 11 13 13 13 14 15 16 16 17 18 17 16 15 15 14 14 15 15 14 13 11 9 9 10 11 13 13 12 11 10 9 8 8 8 8 8 8 8 8
7 9 10 8 7 8 7 7 7 6 6 7 8 7 7 7 5 2 2 1 1 3 2 2 4 3 2 0 0 1 1 1 1 1 2 5 6 7 11 13 12 11 11 8 5 6 8 10 12 12 13 15 16 15 16 17 17 17 17 16 16 15 15 16 15 14 13 12 11 11 11 12 13 13 12 12 11 11 10 9 9 9 9 9 9
9 11 10 8 9 9 8 7 6 6 9 10 10 9 8 9 9 6 5 4 4 4 4 2 2 4 3 1 1 1 0 1 1 1 1 1 3 3 5 6 6 7 8 7 4 5 6 4 7 10 9 11 11 10 12 13 13 15 16 16 17 16 16 16 17 15 15 14 14 13 14 14 14 14 13 12 12 13 13 12 11 10 10 10 10
10 10 10 9 8 8 10 11 7 6 10 12 11 11 10 9 9 8 6 6 6 5 5 4 4 2 3 3 2 2 1 1 1 1 1 1 1 2 2 2 3 2 4 5 5 6 6 5 3 5 4 6 7 7 8 10 10 12 14 15 14 15 16 17 18 18 17 17 16 16 17 16 16 15 14 13 12 13 14 14 13 12 12 12 11
9 9 9 10 9 9 10 9 7 7 9 10 10 10 10 9 9 9 9 9 8 5 5 6 6 4 3 4 3 3 2 1 1 1 1 2 3 3 3 3 4 3 3 4 5 7 8 5 4 3 3 4 6 7 8 8 8 9 12 13 12 13 13 15 18 19 19 19 18 18 19 19 18 17 16 14 13 13 14 15 14 13 13 13 13
9 9 10 10 10 10 8 8 10 11 10 10 9 10 10 10 10 10 10 10 10 8 7 7 7 4 3 4 6 5 3 2 4 3 1 1 2 4 3 5 4 4 5 5 5 5 7 8 8 7 6 4 4 6 8 8 8 9 10 10 11 12 13 14 15 17 18 19 20 20 20 20 20 19 17 16 15 14 14 15 15 15 15 14 14
9 9 10 10 10 10 9 10 13 13 11 10 11 11 12 12 12 12 11 11 11 11 12 12 10 7 3 3 5 6 6 3 4 4 2 1 2 2 2 4 5 5 6 6 6 6 6 9 11 11 10 9 7 8 9 9 8 9 10 10 11 11 12 13 14 15 16 17 20 21 21 20 20 20 18 18 17 17 16 16 16 16 16 16 15
9 8 9 9 9 9 9 10 11 11 11 10 10 11 12 12 13 13 13 13 12 12 12 11 10 10 10 8 6 4 4 3 3 3 2 2 2 2 2 2 2 4 6 6 6 6 8 9 11 12 13 14 13 12 11 11 10 10 10 11 12 12 11 12 12 13 14 15 18 21 22 22 21 20 19 19 19 19 19 18 18 17 17 17 16
7 7 7 7 8 8 9 9 9 9 9 9 9 9 10 10 11 12 12 12 12 11 11 11 10 11 12 12 12 10 7 7 6 5 5 3 2 3 5 6 5 6 5 5 6 8 9 9 9 11 12 13 13 11 10 12 13 15 15 14 13 13 12 12 12 12 12 13 15 18 21 24 25 23 22 22 21 21 20 20 20 18 18 18 17
6 6 6 6 7 7 7 7 8 8 8 8 8 9 9 9 9 10 11 11 11 10 10 11 11 11 11 11 11 12 11 11 9 9 8 7 5 3 6 9 7 8 9 8 9 10 10 8 7 8 9 11 12 10 9 10 11 13 16 16 15 15 13 12 13 14 15 15 15 16 18 21 25 26 25 24 24 24 22 21 21 19 19 19 19
7 6 6 6 5 6 6 6 6 7 7 7 8 7 7 9 9 9 10 10 10 10 10 10 10 9 10 9 10 11 10 8 7 7 6 6 7 5 8 10 7 9 11 11 10 10 9 8 5 5 8 11 12 10 10 10 11 10 11 11 12 13 13 14 15 17 18 19 18 18 18 19 22 25 27 26 25 26 25 24 23 22 21 21 21
8 8 7 6 6 5 5 5 5 6 6 7 7 6 7 8 8 8 8 8 8 8 9 9 9 9 9 8 8 8 7 7 7 7 8 8 8 7 7 9 8 9 10 12 11 8 8 8 5 2 4 7 7 8 8 8 9 10 9 8 9 11 11 13 14 15 16 18 20 20 20 20 21 22 26 28 28 28 28 27 27 26 25 24 23
9 9 8 8 7 6 6 5 5 5 5 6 6 7 8 6 6 7 7 7 7 8 9 9 8 8 8 8 8 8 7 7 7 8 8 7 6 6 5 5 6 6 7 11 13 8 5 5 6 5 3 4 4 5 7 7 8 8 7 8 9 10 11 12 13 13 14 15 17 19 20 20 21 21 23 26 29 31 30 30 29 29 28 27 26
10 10 10 9 9 8 7 7 6 6 5 5 5 5 6 5 5 6 6 6 7 7 7 7 8 8 8 8 7 7 7 7 6 7 7 6 5 5 5 4 3 4 4 6 9 10 14 14 6 4 5 5 4 4 3 6 8 9 9 9 10 10 11 13 14 15 15 16 16 17 18 19 20 21 21 23 27 31 33 33 31 30 31 30 29
11 12 11 11 11 10 9 9 8 8 7 6 6 5 6 5 5 5 6 5 5 5 5 5 6 5 6 7 5 5 6 5 5 6 5 5 6 5 6 5 3 2 3 3 5 7 13 18 13 10 13 14 10 5 3 5 8 9 10 10 11 12 13 14 15 15 16 16 17 17 18 19 19 20 22 23 24 27 32 35 35 33 32 32 32
11 13 12 12 12 12 11 11 11 10 9 8 8 6 6 6 6 5 6 6 5 5 5 5 5 4 5 6 4 3 5 5 4 5 4 4 5 5 6 6 5 4 2 2 4 7 13 18 16 15 18 18 16 13 11 11 12 12 13 14 16 17 17 17 18 17 18 18 18 19 20 22 22 21 22 23 24 25 27 32 36 37 36 34 33
11 12 13 13 13 13 13 13 12 12 11 10 10 9 7 7 7 6 7 7 6 6 6 5 4 4 4 4 4 2 3 4 3 3 4 4 4 5 5 5 5 6 6 4 3 5 11 16 18 19 19 19 18 17 15 14 14 15 16 18 19 19 18 18 18 19 20 20 20 22 23 25 25 24 23 24 25 25 26 28 31 35 38 39 38
12 12 14 14 14 15 15 15 14 13 13 12 12 11 10 10 9 8 9 8 7 8 7 5 5 4 3 3 3 1 2 4 3 3 4 3 4 6 5 4 4 4 6 7 5 7 12 14 16 18 17 17 19 18 17 16 16 16 17 17 17 18 18 18 19 19 19 20 21 22 24 25 25 24 24 24 24 24 25 27 29 31 34 38 40
12 13 13 14 15 16 16 16 15 14 14 13 13 12 11 11 10 10 10 9 8 8 8 7 6 5 4 3 3 3 1 3 1 2 3 3 4 6 5 5 6 6 7 9 7 9 13 14 14 16 16 17 18 17 17 18 19 19 19 19 19 18 18 19 20 20 19 20 21 22 23 24 24 23 23 23 23 23 23 25 28 29 30 33 37
13 13 14 15 16 17 17 16 16 15 15 14 14 14 13 12 11 11 11 11 10 9 10 9 7 7 7 4 4 4 2 1 1 3 3 3 4 6 6 6 7 8 8 10 11 10 13 16 17 17 17 16 17 17 17 18 19 19 19 20 19 19 19 19 20 19 19 20 22 23 24 24 25 25 23 21 21 22 22 23 26 28 29 30 32
15 15 16 17 18 19 19 18 17 16 15 15 15 14 13 13 12 12 11 11 10 10 11 10 8 9 9 6 4 4 3 2 2 2 3 4 4 5 7 7 8 9 9 9 11 12 14 17 17 17 17 17 17 18 18 19 19 19 20 20 20 20 20 19 19 20 20 20 20 19 20 21 22 24 24 22 22 22 22 23 24 26 28 29 31
17 16 16 17 20 20 20 19 18 17 16 15 15 15 14 13 12 12 12 11 10 11 11 10 9 10 10 8 6 5 5 4 3 3 3 4 4 6 8 8 9 10 9 9 10 12 14 16 16 17 17 18 20 20 20 20 20 20 20 20 20 20 20 20 20 20 20 22 21 21 20 20 20 23 25 24 23 23 23 23 24 24 26 27 29
22 21 20 20 22 23 23 21 19 18 17 16 15 15 14 13 12 12 11 10 10 11 11 10 10 10 9 9 7 6 5 4 3 4 4 4 5 6 8 9 9 10 11 11 12 13 15 17 18 19 19 20 20 20 19 20 21 21 20 20 20 20 20 20 21 21 20 22 23 24 23 22 21 21 23 25 25 25 25 25 26 27 27 27 28
29 29 28 26 24 21 19 18 19 19 19 19 19 18 17 15 14 13 12 11 10 10 10 10 10 9 8 8 7 6 6 5 5 5 5 5 5 6 8 9 10 11 12 13 13 14 16 18 19 20 20 20 20 20 19 19 21 22 22 21 20 20 21 22 22 22 22 23 24 24 24 23 22 22 23 25 27 28 28 28 29 29 30 30 29
30 31 28 26 21 16 14 16 21 20 18 18 18 15 16 17 16 15 14 13 11 10 10 10 9 8 8 7 7 7 7 7 7 6 6 5 5 7 9 10 10 11 12 13 13 14 16 17 18 19 19 19 20 21 20 18 20 21 22 22 21 20 20 20 20 19 19 20 21 21 22 22 22 23 25 27 28 28 28 29 29 29 29 29 29
28 28 24 21 19 18 19 22 24 22 18 15 14 14 14 16 17 18 18 16 14 12 11 9 8 8 8 8 8 7 8 8 8 7 7 7 9 12 13 12 12 13 14 14 14 15 16 17 18 18 18 18 19 19 19 18 18 18 18 18 19 19 18 18 19 19 20 21 23 23 23 23 24 25 26 28 30 30 30 29 29 30 29 28 28
25 24 22 20 19 20 23 24 25 24 21 17 17 19 18 15 15 17 19 18 17 15 12 10 9 9 9 8 8 8 9 11 10 10 10 11 14 14 13 13 12 13 14 14 14 15 15 16 16 17 17 16 17 17 17 16 16 17 18 20 21 22 22 23 24 23 23 25 26 27 26 25 25 26 26 26 27 29 30 31 31 31 30 29 28
20 20 19 20 21 21 21 22 24 24 23 21 21 23 23 19 16 15 17 18 17 15 13 12 11 10 10 9 9 10 11 12 12 13 13 13 13 12 13 13 14 14 15 15 15 15 15 15 16 16 16 16 17 17 17 17 18 19 20 20 21 22 22 21 22 22 21 20 22 23 23 21 21 23 25 25 26 26 27 29 30 29 29 28 27
16 17 15 15 19 20 19 19 22 21 20 21 21 22 23 21 18 17 17 17 17 14 12 12 12 10 10 9 9 9 9 10 11 12 12 12 13 14 15 15 14 14 15 16 17 17 16 16 16 16 16 17 17 18 18 19 18 18 18 19 19 19 18 15 14 15 15 16 20 24 24 23 22 24 25 25 24 24 24 25 26 27 28 28 28
14 14 14 13 15 17 17 17 19 20 20 21 21 20 22 21 18 16 16 16 17 15 12 11 11 9 8 8 8 7 7 8 10 12 12 14 15 16 16 15 14 14 15 16 18 18 18 17 17 17 18 18 19 19 19 19 19 20 21 21 20 19 18 15 14 14 14 15 21 25 25 24 23 25 27 26 25 24 23 24 25 25 24 26 28
14 14 13 13 13 14 14 14 15 16 19 22 21 19 20 20 17 16 16 16 16 15 11 10 9 9 7 6 7 8 9 10 11 12 12 12 13 13 12 12 13 13 14 16 18 20 21 21 20 19 18 18 19 19 19 20 21 22 20 18 17 17 18 17 18 20 19 17 21 25 24 22 22 24 28 27 26 26 26 26 26 26 24 23 24
13 12 13 13 13 13 13 12 11 13 17 18 16 15 16 16 16 17 17 16 16 14 11 10 9 8 7 7 9 10 11 11 11 11 11 11 10 10 10 10 11 13 15 17 18 19 21 24 26 26 23 22 22 22 21 21 19 18 15 15 17 19 21 22 25 28 28 25 25 25 24 23 23 26 31 30 28 29 29 28 28 28 28 26 24
13 12 12 13 14 13 12 11 11 13 13 12 11 13 15 16 17 17 16 15 14 12 9 8 7 7 8 9 11 12 11 12 12 12 12 13 14 14 14 14 16 16 17 17 18 19 19 21 24 25 25 24 23 23 22 20 20 20 21 22 22 22 25 27 28 30 29 28 26 24 24 24 23 26 30 29 28 30 30 29 29 28 28 28 28
13 13 12 12 12 11 10 11 12 12 11 12 13 15 17 18 17 14 13 13 11 8 6 5 6 7 8 9 11 11 11 11 13 14 14 16 17 17 16 17 17 18 18 17 17 19 19 20 21 22 23 23 23 25 26 26 27 28 29 29 27 25 25 25 25 25 25 24 23 23 26 27 24 26 28 26 26 29 29 30 30 30 29 29 30
13 13 13 10 9 9 9 11 13 13 14 14 14 15 16 16 15 11 9 8 6 4 4 4 4 6 8 10 11 12 12 12 14 16 16 16 16 15 16 17 17 18 18 18 18 19 19 20 21 22 23 23 24 25 27 27 28 28 28 28 25 24 23 20 19 22 24 22 20 21 25 26 22 23 26 25 25 28 28 30 31 31 31 30 28
11 10 8 7 7 8 10 12 13 15 15 14 13 14 13 13 12 8 5 3 2 1 2 3 5 7 9 10 11 12 12 13 14 14 13 12 12 12 13 16 17 18 19 19 19 19 19 20 21 21 22 22 22 22 22 22 22 22 25 27 24 22 22 20 19 21 24 23 21 20 24 26 24 25 26 24 24 27 27 28 30 31 31 28 24
6 4 6 9 10 10 10 11 13 15 17 15 14 13 12 10 9 8 6 3 1 1 3 4 5 7 8 9 11 12 13 13 12 11 10 10 11 12 13 16 18 19 19 18 18 20 22 23 24 24 24 24 24 24 24 23 22 21 23 25 24 22 22 21 20 19 16 17 18 18 22 23 22 23 23 18 15 18 21 23 25 27 26 24 23
Wind_Direction
206 209 214 214 220 232 230 223 220 220 221 219 224 239 234 233 238 234 246 257 250 247 241 228 233 249 248 222 203 210 222 216 203 189 193 200 187 183 190 180 171 168 165 170 171 167 173 170 171 179 183 185 174 175 179 184 182 158 153 155 164 185 202 198 84 71 72 85 96 102 102 98 95 94 92 90 90 92 96 97 99 101 101 99 96
208 204 221 227 225 231 233 228 222 220 226 223 225 252 250 240 244 238 245 262 260 256 250 237 231 235 240 236 211 198 215 222 207 194 197 202 197 191 192 191 176 173 172 173 172 169 173 170 176 185 188 195 180 175 183 196 194 167 165 174 174 181 195 232 226 102 71 71 83 98 105 105 101 98 97 95 94 94 94 95 96 100 104 104 102
220 213 228 242 238 227 227 237 240 230 226 224 228 252 262 257 256 254 261 273 269 265 263 255 251 235 212 226 226 199 199 216 215 207 199 199 202 195 189 195 186 175 175 176 177 176 177 172 178 192 194 192 185 182 185 196 199 175 176 187 188 184 183 220 244 159 92 67 67 88 102 106 106 103 102 99 99 99 96 96 96 99 104 106 105
225 227 227 241 242 222 221 241 244 231 220 222 238 254 261 249 236 249 271 275 266 257 268 271 271 272 245 231 227 200 190 205 216 215 207 200 200 202 193 193 197 186 178 179 182 184 183 175 178 187 192 191 188 195 194 197 203 184 183 193 199 191 177 201 233 224 113 78 62 74 92 101 107 108 106 104 104 104 102 100 99 101 106 108 109
228 236 233 238 242 226 225 238 241 235 220 210 229 244 245 235 217 233 260 265 256 242 268 270 255 284 293 278 244 207 188 192 210 226 220 199 194 203 201 195 202 200 189 183 185 189 187 181 181 182 186 195 193 196 201 202 210 195 187 193 203 201 186 191 218 229 264 66 90 80 85 92 102 108 109 111 110 111 111 107 105 105 107 112 115
232 236 235 238 242 233 224 237 253 259 244 232 242 241 234 233 227 236 249 259 261 249 267 273 257 268 287 297 278 235 206 190 206 225 228 208 196 202 206 205 207 204 200 194 189 190 191 190 190 183 183 195 196 195 203 204 213 218 193 193 202 212 205 195 202 225 252 299 216 148 113 90 93 102 107 113 115 116 118 115 112 110 109 115 120
229 227 231 232 236 237 221 224 246 253 256 253 260 258 234 232 233 236 237 239 254 256 260 265 271 271 275 299 308 273 252 249 231 223 222 216 206 206 211 213 212 207 203 201 198 194 195 196 195 188 185 193 197 195 200 202 210 227 206 194 197 208 214 202 193 218 240 260 249 219 191 141 105 98 102 110 118 125 128 125 122 119 115 118 121
227 224 230 226 227 228 221 218 224 227 230 227 231 234 227 227 231 236 237 234 242 261 267 261 272 276 273 299 328 339 306 292 289 270 243 221 209 209 212 211 211 210 207 204 205 202 198 198 197 195 191 194 200 197 198 203 208 210 206 204 202 202 210 205 194 206 227 242 255 236 213 192 162 127 115 114 121 139 145 144 140 135 132 127 128
218 225 230 229 229 223 226 231 218 205 205 203 205 215 217 221 226 229 231 233 240 264 274 282 330 319 277 296 319 333 325 309 312 310 304 274 223 217 218 214 211 209 207 205 208 207 205 203 200 201 198 197 201 200 198 202 207 205 203 209 207 202 205 207 203 199 214 231 244 236 225 219 196 171 156 143 141 162 165 173 171 161 154 143 140
192 214 234 262 249 211 224 227 211 197 206 207 203 209 216 223 227 224 223 226 235 255 265 281 360 8 249 271 281 293 302 298 302 303 312 318 306 295 263 234 221 208 200 203 211 212 208 207 206 207 207 205 205 207 202 199 207 207 206 212 199 187 194 206 209 204 206 222 232 232 238 235 211 193 194 186 173 180 191 195 195 192 183 170 161
140 140 353 324 335 61 40 240 215 199 221 232 222 216 219 224 228 226 223 227 234 246 265 273 306 148 186 203 215 236 253 266 297 309 321 323 313 318 325 300 251 222 209 209 215 220 216 209 208 210 211 213 213 215 210 202 211 210 204 213 203 176 181 197 210 212 210 217 225 229 238 245 233 214 216 219 212 202 203 207 207 210 205 197 188
69 71 28 353 34 60 69 18 331 211 207 245 239 231 227 226 230 232 225 231 238 243 263 273 276 272 210 208 216 231 232 230 264 279 300 323 323 318 318 317 302 267 241 228 220 222 223 214 209 212 215 218 220 221 222 213 215 214 202 211 216 215 229 231 227 230 222 218 220 224 235 249 254 247 244 244 238 227 218 217 216 219 219 214 207
62 74 65 62 67 62 81 41 4 50 142 295 256 245 252 249 235 229 227 242 250 243 249 256 258 267 253 270 265 247 243 238 247 258 268 282 298 312 312 309 315 313 282 250 232 223 222 217 216 219 220 223 225 223 226 224 223 222 212 211 215 219 235 246 244 246 240 227 222 223 231 244 255 255 256 258 254 248 236 229 225 222 225 223 219
83 94 79 81 81 68 93 82 58 66 73 63 38 262 260 277 248 230 238 253 258 239 238 238 233 219 61 360 308 263 259 248 245 256 264 268 272 287 297 299 303 310 312 286 245 229 226 224 221 225 223 222 226 225 225 226 225 226 223 221 218 214 224 240 249 251 247 235 225 226 230 238 248 254 256 260 260 256 248 244 237 229 227 226 225
83 96 83 79 71 63 83 80 69 74 82 80 63 61 74 33 257 237 258 245 242 257 241 219 189 147 93 20 300 260 278 256 249 254 259 264 261 264 274 284 293 295 306 314 276 246 244 235 223 224 223 217 224 231 228 226 227 227 227 228 228 221 217 226 243 251 250 245 234 231 235 238 247 252 253 257 260 259 254 251 247 242 237 230 227
62 76 78 70 64 61 64 62 54 50 62 79 77 69 66 60 63 91 105 137 121 76 67 178 177 160 135 147 182 114 28 41 54 40 259 248 234 246 261 268 285 295 296 307 315 296 278 253 233 231 231 223 226 235 234 232 234 234 233 233 234 233 225 222 230 238 243 249 246 241 243 245 249 254 254 253 254 256 255 251 249 247 244 238 232
60 73 75 64 67 59 54 65 59 39 42 63 74 67 62 59 53 61 83 99 106 92 72 86 168 190 186 161 105 125 121 15 44 107 101 225 216 242 259 252 263 293 294 287 302 321 321 298 252 247 241 225 224 231 231 232 237 240 238 234 233 234 234 229 227 228 232 242 248 247 248 251 252 255 257 254 252 253 253 252 248 243 242 242 238
66 76 74 68 74 52 52 68 69 49 42 50 59 54 53 53 44 44 60 75 88 98 97 97 111 148 188 185 129 100 100 347 357 90 26 6 344 272 264 242 233 270 302 283 277 288 309 348 327 266 247 219 217 224 232 234 240 249 245 238 235 234 236 236 233 232 232 235 243 248 249 252 253 254 256 257 254 250 249 250 246 239 237 237 237
74 79 75 73 79 66 62 68 70 72 57 50 57 55 53 55 48 45 54 60 62 87 123 121 110 113 154 176 165 133 117 71 108 95 340 11 21 351 320 296 257 237 272 285 282 270 271 306 342 303 245 229 231 239 256 257 248 247 244 243 245 240 239 240 236 236 238 236 238 243 248 249 250 252 254 255 255 250 246 245 239 232 232 232 232
83 84 84 82 82 78 69 60 68 83 80 67 66 64 63 64 60 54 56 59 54 65 82 76 85 109 143 151 156 160 153 145 147 135 90 338 352 355 350 338 318 280 269 273 282 283 271 265 268 262 246 247 256 250 258 262 256 252 244 241 246 247 249 249 240 237 240 240 238 238 242 245 248 253 256 256 253 250 248 245 236 227 227 230 230
90 88 88 86 83 82 73 62 66 77 81 74 70 69 68 66 66 63 61 60 56 62 63 53 59 66 63 127 159 165 156 149 158 155 148 188 275 288 300 332 341 320 303 295 287 294 290 262 254 251 240 240 251 253 255 254 257 263 254 240 238 245 251 251 249 244 241 242 241 239 239 242 245 246 252 255 253 251 249 247 243 233 226 228 229
98 94 92 90 86 84 81 75 72 76 80 78 69 66 66 64 65 67 67 64 61 64 62 54 56 54 48 46 47 85 123 129 155 182 202 199 242 286 299 300 294 297 305 316 312 305 305 286 266 259 254 253 256 257 257 256 261 269 265 253 243 240 239 240 246 248 243 241 240 240 240 241 241 239 242 248 250 251 248 248 248 237 225 226 228
110 103 97 96 93 90 86 83 82 82 83 85 79 72 70 68 66 66 67 67 67 70 68 62 59 58 58 50 42 49 52 48 53 39 29 30 352 333 332 321 307 311 321 330 325 315 314 308 288 274 267 268 270 266 260 256 259 262 259 258 253 245 238 233 236 242 244 245 242 240 240 239 240 239 238 242 246 248 246 246 247 237 226 226 229
126 121 113 104 98 95 92 86 87 86 83 86 88 84 82 80 75 71 71 71 71 73 74 72 69 64 60 51 49 55 50 44 44 38 36 23 357 324 331 339 335 334 337 325 312 310 309 305 293 279 270 272 270 267 270 262 256 258 255 256 256 252 249 248 250 254 255 255 252 250 246 240 239 238 237 240 244 246 242 240 240 236 231 228 229
150 148 140 127 117 105 99 96 95 95 94 94 92 90 88 85 83 77 74 72 70 69 70 72 77 77 68 59 58 61 56 51 40 36 47 27 12 5 347 351 347 327 321 306 292 295 300 299 293 269 259 264 261 266 284 272 260 265 259 257 261 257 259 262 263 265 264 264 264 262 258 251 246 242 238 236 239 244 244 241 239 239 238 234 229
166 169 163 150 143 130 124 124 113 107 109 109 107 105 97 92 93 88 82 80 77 75 74 71 74 82 82 77 72 67 62 58 40 33 48 44 33 30 357 343 336 321 317 314 300 272 260 264 266 279 270 261 259 270 280 263 258 265 254 251 264 264 267 272 272 272 271 270 269 267 264 261 256 251 245 238 234 237 242 244 243 242 242 241 237
174 180 178 166 163 159 156 153 138 132 127 120 120 114 105 104 107 102 96 96 91 84 79 74 74 79 81 79 75 70 57 51 48 42 46 46 34 26 7 348 339 328 327 333 327 314 312 286 234 225 262 260 258 273 280 281 283 283 266 258 268 271 272 274 275 276 277 277 277 273 270 265 261 256 251 245 238 234 235 240 243 243 242 242 242
181 186 187 177 178 177 172 173 163 159 156 137 138 138 127 127 126 121 116 104 96 93 87 79 79 81 80 78 76 76 62 48 50 52 45 38 31 21 10 8 358 341 332 338 336 337 355 357 326 274 318 319 289 258 273 310 308 304 300 291 290 292 287 281 278 275 273 275 278 277 274 268 263 257 254 252 246 239 235 235 238 241 242 243 243
186 191 195 187 189 189 184 189 183 176 179 165 163 171 153 146 148 141 138 130 119 121 114 99 96 92 84 85 83 82 78 64 57 58 46 35 38 22 1 4 9 357 338 334 338 325 334 344 344 336 343 352 353 334 317 326 310 302 306 305 302 298 294 292 286 278 273 271 269 272 277 276 270 263 257 254 252 247 241 237 235 236 239 242 244
194 197 202 195 197 199 194 200 198 190 191 182 178 186 171 166 171 160 158 159 151 146 139 125 121 112 96 98 95 67 69 70 66 55 37 35 38 14 357 360 353 350 345 310 317 314 318 328 333 330 329 336 343 336 328 326 315 304 301 299 297 293 290 288 284 280 279 275 270 271 276 277 275 271 264 258 255 252 248 243 239 237 236 238 241
205 203 206 203 205 207 203 208 209 201 198 191 188 190 181 183 188 181 182 179 167 165 163 154 147 131 115 114 102 67 54 63 64 33 15 21 21 6 5 3 348 342 332 307 288 296 309 314 318 322 325 324 324 322 317 316 311 303 299 296 294 293 290 285 282 282 281 279 277 276 276 275 273 270 266 263 260 257 254 249 245 242 239 239 239
216 214 212 210 214 215 212 214 214 209 207 200 197 196 190 194 197 194 197 193 183 184 179 167 165 164 164 151 137 126 60 63 56 4 4 6 349 348 347 336 330 320 306 296 280 287 299 304 307 313 316 313 311 310 307 304 301 298 297 295 292 291 289 285 284 284 283 281 280 278 276 275 272 267 262 261 262 260 258 254 250 247 244 242 241
222 222 220 219 223 223 220 219 218 214 211 208 206 203 200 201 201 200 200 194 191 197 191 181 179 181 187 183 179 189 107 76 46 341 355 355 334 329 323 318 316 314 312 308 301 298 301 303 305 306 306 304 302 301 299 296 293 292 292 292 291 288 286 286 286 285 283 282 280 277 273 270 266 262 260 260 261 261 260 257 253 251 248 247 245
231 230 229 229 231 231 228 225 223 219 215 212 211 208 208 211 208 206 204 196 198 207 197 189 192 189 188 191 185 179 162 132 312 336 348 338 329 326 326 327 314 307 311 313 311 309 305 303 302 301 300 299 296 295 294 292 292 292 290 289 288 287 287 286 286 286 286 283 281 279 277 272 264 258 258 260 262 263 261 259 256 254 252 251 249
240 238 238 238 236 236 235 231 228 225 220 216 214 211 212 217 216 214 211 202 203 213 203 194 201 195 188 194 194 192 207 225 255 302 316 314 319 322 319 316 307 300 295 294 293 291 291 294 296 298 299 299 297 297 296 293 292 291 289 287 285 284 286 285 282 284 285 283 282 284 285 280 267 256 253 256 261 264 263 261 259 257 255 255 254
243 238 240 245 245 241 238 235 233 230 225 219 218 214 214 221 226 223 218 212 213 220 210 201 208 201 188 192 199 205 215 213 229 271 292 303 310 314 311 307 303 301 298 293 288 285 286 289 292 294 296 297 296 296 296 294 292 290 290 288 286 284 285 284 282 282 283 282 285 290 293 288 274 257 249 250 255 260 263 263 263 262 260 257 256
245 240 234 238 244 244 240 237 236 234 229 223 220 216 213 218 227 229 223 219 223 229 220 212 217 207 188 191 201 204 207 212 234 261 275 292 300 302 301 300 299 298 297 294 290 290 291 291 292 292 292 292 292 293 294 294 294 292 289 287 286 287 286 284 282 282 282 282 285 289 290 290 284 269 259 259 261 263 264 266 267 267 264 262 259
247 244 238 234 237 246 251 244 239 239 234 229 226 221 215 214 220 225 225 222 224 230 228 223 220 210 193 196 207 208 211 222 231 244 264 279 289 293 293 294 293 291 292 291 289 287 286 285 287 288 289 289 288 287 288 290 291 292 292 290 288 286 286 284 282 282 282 282 282 283 282 281 280 276 271 269 268 266 265 266 267 268 267 263 259
250 246 243 240 242 258 270 253 242 244 242 239 240 235 223 218 218 220 219 218 217 222 228 226 221 216 210 209 214 216 219 226 234 244 249 249 268 287 289 289 291 290 290 289 287 286 284 283 283 283 284 285 284 283 285 286 286 287 290 290 287 286 285 284 284 286 286 284 284 284 281 278 277 275 273 270 268 268 267 265 266 268 268 266 261
252 248 244 244 247 251 252 247 242 243 245 244 247 250 242 233 227 219 212 209 209 212 217 219 220 221 216 213 218 226 231 234 236 231 224 244 281 290 285 282 286 290 291 290 287 285 284 282 281 281 283 284 283 283 284 283 279 281 286 289 292 296 297 293 290 293 295 293 292 290 286 284 282 280 277 272 267 266 266 266 266 265 265 266 264
246 248 247 251 254 248 245 247 245 243 247 243 235 239 244 245 237 221 209 205 202 201 204 207 217 223 217 219 226 232 238 241 240 237 245 270 287 289 285 282 283 285 288 289 289 289 288 286 286 287 288 286 286 288 292 293 291 295 300 301 300 300 300 298 292 290 293 291 288 285 282 282 281 280 280 278 272 268 265 264 265 266 265 264 263
243 248 249 250 251 246 241 244 242 240 245 243 236 239 244 247 245 226 207 199 195 195 200 204 214 224 223 228 235 238 243 250 256 263 273 283 286 283 284 283 280 280 282 284 285 287 291 291 289 292 294 291 289 293 300 303 304 306 308 306 301 295 291 290 287 286 286 285 288 290 287 285 282 280 279 279 277 273 267 262 261 263 265 265 262
248 252 250 237 232 233 233 236 236 233 237 240 242 250 249 241 238 227 209 196 190 192 199 201 206 218 225 233 242 247 254 263 272 279 286 290 288 288 289 286 282 278 275 276 278 280 283 284 285 287 288 288 289 294 300 304 308 312 315 317 316 310 301 292 288 289 285 290 305 309 301 295 294 292 288 283 280 277 274 271 267 265 264 264 261
249 254 254 236 227 234 239 241 238 233 236 242 248 255 250 238 229 218 204 191 187 189 192 193 200 214 227 237 246 253 265 273 277 282 287 287 287 288 288 285 282 278 274 273 274 274 274 275 277 278 279 282 288 293 296 302 309 314 314 314 314 315 315 309 305 303 294 299 314 314 303 295 295 296 294 290 286 284 282 280 279 275 269 265 261
256 246 246 244 241 246 251 249 238 231 239 245 247 247 244 238 227 207 191 182 180 181 183 189 201 214 225 239 254 263 271 275 278 284 286 286 289 295 296 290 284 281 279 276 274 273 271 268 267 268 271 277 284 287 289 294 302 309 311 309 308 310 314 313 309 305 298 300 313 313 302 294 294 294 292 289 287 287 284 281 282 281 278 272 263
272 250 239 242 244 249 253 246 228 227 238 243 240 232 225 220 210 195 181 173 171 174 178 187 198 212 230 249 262 267 270 273 275 279 279 278 284 295 301 299 293 291 289 285 282 279 273 267 265 265 268 272 277 281 284 286 291 299 306 308 306 306 305 301 298 297 293 293 302 304 295 289 291 288 285 283 283 283 281 280 281 280 277 273 266
281 268 250 244 244 249 251 238 221 222 227 221 208 200 193 189 188 184 174 166 166 168 175 191 210 230 249 260 264 267 270 273 272 272 273 275 279 286 291 292 292 290 288 287 286 285 282 276 272 272 273 274 275 275 277 277 278 285 292 295 295 297 297 295 292 291 290 288 291 291 285 286 287 281 279 281 281 279 278 278 278 279 276 272 268
279 276 265 251 243 242 237 225 217 209 194 178 176 178 175 173 175 175 168 164 170 180 193 213 236 252 260 263 263 265 268 271 273 275 279 282 284 287 289 290 291 289 287 287 285 284 283 281 279 279 279 278 276 275 276 278 280 285 290 290 288 288 289 289 287 285 285 285 282 277 277 282 282 275 275 280 281 280 280 279 277 277 277 274 270
276 275 270 253 233 219 205 201 201 187 168 165 172 173 171 170 168 165 162 166 178 202 216 231 251 259 263 261 260 262 266 269 275 280 283 284 284 286 288 289 291 290 289 290 290 287 285 283 282 282 283 283 282 281 281 282 282 285 286 283 281 281 278 276 277 278 279 280 278 274 276 280 282 279 279 281 280 278 279 279 278 275 275 275 269
280 272 253 218 184 178 181 183 183 174 162 162 171 173 173 178 176 163 147 147 166 219 244 264 270 266 266 269 272 273 270 269 272 275 276 280 283 286 290 294 294 291 291 294 295 292 289 287 284 283 282 283 284 285 286 285 282 282 279 275 274 273 269 267 271 275 275 273 273 274 276 278 282 285 288 290 285 278 274 275 276 273 270 268 257
263 200 169 157 147 151 166 172 174 173 164 159 166 171 169 173 176 166 149 131 110 290 280 283 278 272 277 290 294 287 275 268 269 273 278 287 294 295 297 298 295 293 294 294 294 294 293 291 290 289 288 287 287 287 287 285 282 278 275 274 274 268 264 265 271 274 275 273 270 268 270 276 283 288 293 297 292 284 282 281 278 271 259 246 233